Weather History for LIRA - July, 2013

Change the Weather History Date:

Saturday, July 20, 2013

  Actual Average Record
Temperature  
Mean Temperature 74 °F -  
Max Temperature 86 °F 87 °F 96 °F (2007)
Min Temperature 62 °F 64 °F 60 °F (2000)
Cooling Degree Days 9    
Growing Degree Days 24 (Base 50)    
Moisture  
Dew Point 64 °F    
Average Humidity 71    
Maximum Humidity 100    
Minimum Humidity 37    
Precipitation  
Precipitation 0.00 in 0.04 in - ()
Sea Level Pressure  
Sea Level Pressure 29.97 in    
Wind  
Wind Speed 4 mph ()    
Max Wind Speed 10 mph    
Max Gust Speed -    
Visibility 6.2 miles    
Events      
Averages and records for this station are not official NWS values.
T = Trace of Precipitation, MM = Missing Value Source: Averaged Metar Reports

Daily Weather History Graph

Daily Weather History Graph

Search for Another Location

Airport or City:

Trip Planner

Search our weather history database for the weather conditions in past years. The results will help you decide how hot, cold, wet, or windy it might be!

Date:

Astronomy

Jul. 20, 2013 Rise Set
Actual Time 5:52 AM CEST 8:39 PM CEST
Civil Twilight 5:19 AM CEST 9:11 PM CEST
Nautical Twilight 4:38 AM CEST 9:52 PM CEST
Astronomical Twilight 3:50 AM CEST 10:40 PM CEST
Moon 6:25 PM CEST (7/20) 3:14 AM CEST (7/20)
Length of Visible Light 15h 52m
Length of Day
14h 47m
Waxing Gibbous, 92% of the Moon is Illuminated
Jul 20
Waxing Gibbous
Jul 22
Full
Jul 29
Last Quarter
Aug 6
New
Aug 14
First Quarter

Hourly Weather History & Observations

Time (CEST) Temp. Heat Index Dew Point Humidity Pressure Visibility Wind Dir Wind Speed Gust Speed Precip Events Conditions
12:15 AM 68.0 °F - 66.2 °F 94% 30.01 in - NNE 2.3 mph - N/A   Clear
12:45 AM 68.0 °F - 66.2 °F 94% 30.01 in - NNE 4.6 mph - N/A   Clear
1:15 AM 68.0 °F - 66.2 °F 94% 30.01 in - NNE 2.3 mph - N/A   Clear
1:45 AM 66.2 °F - 64.4 °F 94% 30.01 in - NNE 3.5 mph - N/A   Clear
2:15 AM 66.2 °F - 64.4 °F 94% 30.01 in - NE 4.6 mph - N/A   Clear
2:45 AM 66.2 °F - 64.4 °F 94% 30.01 in - NNE 4.6 mph - N/A   Clear
3:15 AM 64.4 °F - 62.6 °F 94% 29.98 in - NE 4.6 mph - N/A   Clear
3:45 AM 64.4 °F - 62.6 °F 94% 29.98 in - NE 3.5 mph - N/A   Clear
4:15 AM 64.4 °F - 64.4 °F 100% 29.98 in - NNE 2.3 mph - N/A   Clear
4:45 AM 64.4 °F - 62.6 °F 94% 29.98 in - NNE 2.3 mph - N/A   Clear
5:15 AM 64.4 °F - 62.6 °F 94% 29.98 in - NNE 2.3 mph - N/A   Clear
5:45 AM 64.4 °F - 62.6 °F 94% 29.98 in - NE 2.3 mph - N/A   Clear
6:15 AM 62.6 °F - 60.8 °F 94% 29.98 in - NNE 2.3 mph - N/A   Clear
6:45 AM 62.6 °F - 60.8 °F 94% 29.98 in 6.2 mi NNE 2.3 mph - N/A   Scattered Clouds
7:15 AM 66.2 °F - 64.4 °F 94% 29.98 in 6.2 mi NNE 3.5 mph - N/A   Scattered Clouds
7:45 AM 68.0 °F - 64.4 °F 88% 29.98 in 6.2 mi NNE 3.5 mph - N/A   Scattered Clouds
8:15 AM 68.0 °F - 62.6 °F 83% 29.98 in - North 4.6 mph - N/A   Clear
8:45 AM 69.8 °F - 62.6 °F 78% 29.98 in - NNE 4.6 mph - N/A   Clear
9:15 AM 73.4 °F - 66.2 °F 78% 30.01 in 6.2 mi NNE 3.5 mph - N/A   Scattered Clouds
9:45 AM 75.2 °F - 66.2 °F 73% 30.01 in 6.2 mi NNE 2.3 mph - N/A   Scattered Clouds
10:15 AM 77.0 °F - 64.4 °F 65% 30.01 in 6.2 mi North 1.2 mph - N/A   Partly Cloudy
10:45 AM 78.8 °F - 62.6 °F 57% 29.98 in 6.2 mi NNE 4.6 mph - N/A   Partly Cloudy
11:15 AM 80.6 °F 81.8 °F 62.6 °F 54% 29.98 in 6.2 mi South 2.3 mph - N/A   Scattered Clouds
11:45 AM 82.4 °F 82.9 °F 60.8 °F 48% 29.98 in 6.2 mi West 2.3 mph - N/A   Scattered Clouds
12:15 PM 82.4 °F 82.9 °F 60.8 °F 48% 29.98 in 6.2 mi NW 4.6 mph - N/A   Scattered Clouds
12:45 PM 84.2 °F 84.4 °F 60.8 °F 45% 29.98 in 6.2 mi North 4.6 mph - N/A   Scattered Clouds
1:15 PM 86.0 °F 85.4 °F 59.0 °F 40% 29.98 in 6.2 mi NNE 4.6 mph - N/A   Scattered Clouds
1:45 PM 86.0 °F 84.9 °F 57.2 °F 37% 29.98 in 6.2 mi NNW 6.9 mph - N/A   Scattered Clouds
2:15 PM 86.0 °F 84.9 °F 57.2 °F 37% 29.95 in 6.2 mi North 5.8 mph - N/A   Scattered Clouds
2:45 PM 86.0 °F 85.4 °F 59.0 °F 40% 29.95 in 6.2 mi North 6.9 mph - N/A   Scattered Clouds
3:15 PM 86.0 °F 85.4 °F 59.0 °F 40% 29.95 in 6.2 mi West 8.1 mph - N/A   Scattered Clouds
3:45 PM 86.0 °F 86.1 °F 60.8 °F 43% 29.95 in 6.2 mi West 6.9 mph - N/A   Scattered Clouds
4:15 PM 86.0 °F 86.1 °F 60.8 °F 43% 29.95 in 6.2 mi West 8.1 mph - N/A   Scattered Clouds
4:45 PM 86.0 °F 86.1 °F 60.8 °F 43% 29.92 in 6.2 mi West 8.1 mph - N/A   Partly Cloudy
5:15 PM 86.0 °F 86.6 °F 62.6 °F 45% 29.92 in 6.2 mi WSW 10.4 mph - N/A   Partly Cloudy
5:45 PM 86.0 °F 87.3 °F 64.4 °F 48% 29.92 in 6.2 mi West 8.1 mph - N/A   Partly Cloudy
6:15 PM 84.2 °F 85.6 °F 64.4 °F 51% 29.92 in 6.2 mi West 8.1 mph - N/A   Partly Cloudy
6:45 PM 84.2 °F 85.6 °F 64.4 °F 51% 29.92 in 6.2 mi West 6.9 mph - N/A   Partly Cloudy
7:15 PM 82.4 °F 84.6 °F 66.2 °F 58% 29.95 in 6.2 mi West 6.9 mph - N/A   Scattered Clouds
7:45 PM 80.6 °F 83.2 °F 68.0 °F 65% 29.95 in 6.2 mi West 5.8 mph - N/A   Partly Cloudy
8:15 PM 78.8 °F - 68.0 °F 69% 29.95 in 6.2 mi WSW 5.8 mph - N/A   Partly Cloudy
8:45 PM 78.8 °F - 68.0 °F 69% 29.95 in - SW 4.6 mph - N/A   Clear
9:15 PM 77.0 °F - 69.8 °F 78% 29.95 in - SSW 4.6 mph - N/A   Clear
9:45 PM 77.0 °F - 69.8 °F 78% 29.95 in - South 5.8 mph - N/A   Clear
10:15 PM 75.2 °F - 69.8 °F 83% 29.95 in - South 4.6 mph - N/A   Clear
10:45 PM 75.2 °F - 69.8 °F 83% 29.95 in - South 3.5 mph - N/A   Clear
11:15 PM 75.2 °F - 69.8 °F 83% 29.95 in - South 5.8 mph - N/A   Clear
11:45 PM 75.2 °F - 71.6 °F 89% 29.95 in - South 4.6 mph - N/A   Clear